GBOST EGHQ-EGHQ

Flight info

Callsign GBOST
Flight time 0h 9m
Altitude 6000
Route VFR FLIGHT
Aircraft GA8/L-SDE3FGHIRWY/LB1

Departure

Time 2026-05-08 19:36
Airport Cornwall Airport Newquay (EGHQ)

Arrival

Time 2026-05-08 19:45
Airport Cornwall Airport Newquay (EGHQ)
Time Latitude Longitude Altitude Speed Heading
2026-05-08 19:24 50.44645 -5.00228 331 ft 0 kts 152°
2026-05-08 19:30 50.44642 -5.00226 331 ft 1 kts 152°
2026-05-08 19:31 50.44617 -5.00223 331 ft 6 kts 192°
2026-05-08 19:31 50.44577 -5.00244 331 ft 6 kts 227°
2026-05-08 19:31 50.44577 -5.00319 331 ft 9 kts 300°
2026-05-08 19:31 50.44612 -5.00412 329 ft 11 kts 299°
2026-05-08 19:32 50.44655 -5.00527 325 ft 14 kts 300°
2026-05-08 19:32 50.44706 -5.00662 321 ft 15 kts 297°
2026-05-08 19:32 50.44734 -5.00740 319 ft 3 kts 300°
2026-05-08 19:32 50.44773 -5.00838 316 ft 18 kts 303°
2026-05-08 19:33 50.44809 -5.00996 312 ft 13 kts 265°
2026-05-08 19:33 50.44784 -5.01094 310 ft 8 kts 231°
2026-05-08 19:33 50.44763 -5.01124 309 ft 2 kts 211°
2026-05-08 19:33 50.44744 -5.01141 309 ft 5 kts 210°
2026-05-08 19:34 50.44714 -5.01166 309 ft 5 kts 207°
2026-05-08 19:34 50.44693 -5.01163 310 ft 4 kts 142°
2026-05-08 19:34 50.44681 -5.01137 311 ft 2 kts 118°
2026-05-08 19:34 50.44679 -5.01132 311 ft 0 kts 121°
2026-05-08 19:35 50.44678 -5.01131 311 ft 2 kts 120°
2026-05-08 19:35 50.44668 -5.01103 311 ft 13 kts 119°
2026-05-08 19:35 50.44520 -5.00707 322 ft 66 kts 121°
2026-05-08 19:35 50.44259 -5.00106 547 ft 65 kts 121°
2026-05-08 19:36 50.44013 -4.99448 723 ft 71 kts 115°
2026-05-08 19:36 50.43790 -4.98762 999 ft 72 kts 118°
2026-05-08 19:36 50.43546 -4.98106 1329 ft 68 kts 116°
2026-05-08 19:36 50.43322 -4.97462 1684 ft 70 kts 126°
2026-05-08 19:37 50.43090 -4.96814 2094 ft 68 kts 120°
2026-05-08 19:37 50.42879 -4.96198 2665 ft 62 kts 116°
2026-05-08 19:37 50.42592 -4.95643 3040 ft 76 kts 157°
2026-05-08 19:37 50.42028 -4.96082 3272 ft 107 kts 212°
2026-05-08 19:38 50.41381 -4.96965 3126 ft 123 kts 219°
2026-05-08 19:38 50.40801 -4.97861 3434 ft 114 kts 223°
2026-05-08 19:38 50.40566 -4.99064 3254 ft 133 kts 287°
2026-05-08 19:38 50.40966 -5.00328 3040 ft 120 kts 306°
2026-05-08 19:39 50.41470 -5.01440 2812 ft 131 kts 309°
2026-05-08 19:39 50.41999 -5.02521 2577 ft 124 kts 309°
2026-05-08 19:39 50.42596 -5.03556 2211 ft 124 kts 324°
2026-05-08 19:39 50.43240 -5.04415 2090 ft 122 kts 312°
2026-05-08 19:40 50.43586 -5.05620 1812 ft 121 kts 270°
2026-05-08 19:40 50.42938 -5.06466 932 ft 134 kts 198°
2026-05-08 19:40 50.42211 -5.07058 689 ft 121 kts 217°
2026-05-08 19:40 50.41633 -5.07850 526 ft 103 kts 239°
2026-05-08 19:41 50.41854 -5.08568 382 ft 86 kts 338°
2026-05-08 19:41 50.42164 -5.09314 231 ft 88 kts 302°
2026-05-08 19:41 50.42589 -5.10044 223 ft 100 kts 249°
2026-05-08 19:41 50.42026 -5.09888 147 ft 86 kts 164°
2026-05-08 19:42 50.41536 -5.10172 246 ft 68 kts 211°
2026-05-08 19:42 50.41273 -5.10769 439 ft 82 kts 287°
2026-05-08 19:42 50.41339 -5.11780 410 ft 94 kts 275°
2026-05-08 19:42 50.41179 -5.12720 430 ft 89 kts 174°
2026-05-08 19:43 50.40897 -5.11950 272 ft 77 kts 101°
2026-05-08 19:43 50.40959 -5.11225 423 ft 71 kts 48°
2026-05-08 19:43 50.41351 -5.10695 618 ft 70 kts 35°
2026-05-08 19:43 50.41771 -5.10299 813 ft 73 kts 25°
2026-05-08 19:44 50.42315 -5.10077 820 ft 91 kts 355°
2026-05-08 19:44 50.42623 -5.10422 839 ft 95 kts 309°
2026-05-08 19:44 50.42878 -5.10203 975 ft 88 kts 130°
2026-05-08 19:44 50.42214 -5.10083 554 ft 89 kts 163°
2026-05-08 19:45 50.41727 -5.10367 457 ft 68 kts 238°
2026-05-08 19:45 50.41447 -5.10754 398 ft 67 kts 154°
2026-05-08 19:45 50.41438 -5.10118 45 ft 76 kts 37°
2026-05-08 19:45 50.41823 -5.09816 60 ft 48 kts 23°
2026-05-08 19:46 50.42191 -5.09821 235 ft 56 kts 356°
2026-05-08 19:46 50.42616 -5.10176 281 ft 74 kts 336°
2026-05-08 19:46 50.42585 -5.10256 245 ft 64 kts 143°
2026-05-08 19:47 50.42242 -5.09956 215 ft 51 kts 150°
2026-05-08 19:47 50.41846 -5.09835 37 ft 67 kts 193°
2026-05-08 19:47 50.41466 -5.10090 23 ft 62 kts 211°
2026-05-08 19:47 50.41418 -5.10672 190 ft 65 kts 291°
2026-05-08 19:48 50.41515 -5.11287 480 ft 54 kts 288°
2026-05-08 19:48 50.41617 -5.11877 647 ft 59 kts 290°
2026-05-08 19:48 50.41530 -5.12442 789 ft 68 kts 244°
2026-05-08 19:48 50.41248 -5.12385 937 ft 65 kts 89°
2026-05-08 19:49 50.41232 -5.11616 896 ft 63 kts 92°
2026-05-08 19:49 50.41197 -5.10905 651 ft 71 kts 93°
2026-05-08 19:49 50.41406 -5.10143 43 ft 88 kts 37°
2026-05-08 19:49 50.41835 -5.09812 7 ft 48 kts 24°
2026-05-08 19:50 50.42171 -5.09842 120 ft 60 kts 358°
2026-05-08 19:50 50.42588 -5.09726 328 ft 52 kts 10°
2026-05-08 19:50 50.42472 -5.09397 331 ft 74 kts 157°
2026-05-08 19:50 50.42104 -5.09232 566 ft 51 kts 146°
2026-05-08 19:51 50.41898 -5.09075 696 ft 55 kts 148°
2026-05-08 19:51 50.41546 -5.08577 817 ft 69 kts 110°
2026-05-08 19:51 50.41513 -5.07707 860 ft 48 kts 128°
2026-05-08 19:51 50.41348 -5.08287 630 ft 84 kts 278°
2026-05-08 19:52 50.41665 -5.08824 574 ft 59 kts 26°
2026-05-08 19:52 50.41526 -5.08420 158 ft 84 kts 89°
2026-05-08 19:52 50.41875 -5.07738 141 ft 92 kts 71°
2026-05-08 19:52 50.42282 -5.06816 54 ft 113 kts 28°
2026-05-08 19:53 50.42985 -5.06377 68 ft 110 kts 32°
2026-05-08 19:53 50.43675 -5.05801 21 ft 118 kts 28°
2026-05-08 19:53 50.44409 -5.05234 9 ft 118 kts 27°
2026-05-08 19:53 50.45051 -5.04689 144 ft 86 kts 26°
2026-05-08 19:54 50.45600 -5.04342 438 ft 75 kts 76°
2026-05-08 19:54 50.45455 -5.03468 583 ft 78 kts 100°
2026-05-08 19:54 50.45362 -5.02969 612 ft 67 kts 117°
2026-05-08 19:54 50.45150 -5.02383 562 ft 66 kts 116°
2026-05-08 19:55 50.44908 -5.01741 452 ft 71 kts 116°
2026-05-08 19:55 50.44663 -5.01089 330 ft 66 kts 116°
2026-05-08 19:55 50.44453 -5.00527 326 ft 67 kts 120°
2026-05-08 19:55 50.44206 -4.99895 564 ft 65 kts 116°
2026-05-08 19:56 50.43998 -4.99314 874 ft 63 kts 116°
2026-05-08 19:56 50.43702 -4.98540 1059 ft 92 kts 120°
2026-05-08 19:56 50.43381 -4.97673 1426 ft 94 kts 118°
2026-05-08 19:56 50.43068 -4.96740 1800 ft 92 kts 118°
2026-05-08 19:57 50.42711 -4.95895 2158 ft 100 kts 130°
2026-05-08 19:57 50.42368 -4.95239 2850 ft 48 kts 124°
2026-05-08 19:57 50.42138 -4.94700 3276 ft 60 kts 119°
2026-05-08 19:57 50.41832 -4.94181 3470 ft 73 kts 147°
2026-05-08 19:58 50.41413 -4.93817 3675 ft 69 kts 153°
2026-05-08 19:58 50.40972 -4.93450 3796 ft 73 kts 144°
2026-05-08 19:58 50.40445 -4.93005 3840 ft 93 kts 159°
2026-05-08 19:58 50.39828 -4.92994 4284 ft 71 kts 178°
2026-05-08 19:59 50.39284 -4.93033 4529 ft 85 kts 171°
2026-05-08 19:59 50.38747 -4.92903 4814 ft 78 kts 175°
2026-05-08 19:59 50.38593 -4.93604 5007 ft 104 kts 338°
2026-05-08 19:59 50.38720 -4.93098 5147 ft 87 kts 172°
2026-05-08 20:00 50.38754 -4.93452 5381 ft 87 kts 89°
2026-05-08 20:00 50.38425 -4.93387 5661 ft 0 kts 195°